Albuquerque, NM

2:00 AM MST on November 20, 2019 (GMT -0700)
Albuquerque International Sunport

Weather History for KABQ - October, 2019

Change the Weather History Date:

Sunday, October 20, 2019

  Actual Average Record
Temperature  
Mean Temperature 51 °F 56 °F  
Max Temperature 62 °F 68 °F 84 °F (2007)
Min Temperature 39 °F 45 °F 24 °F (1898)
Degree Days  
Heating Degree Days 14 9  
Month to date heating degree days 100 116  
Since 1 July heating degree days 100 142  
Cooling Degree Days 0 0  
Month to date cooling degree days 10 7  
Year to date cooling degree days 1529 1319  
Moisture  
Dew Point 15 °F    
Average Humidity 24    
Maximum Humidity 38    
Minimum Humidity 10    
Precipitation  
Precipitation 0.00 in 0.03 in 1.00 in (1918)
Month to date precipitation 0.58 0.74  
Year to date precipitation 6.48 8.10  
Snow  
Snow 0.00 in - - ()
Month to date snowfall 0.0  
Since 1 July snowfall 0.0  
Since 1 September snowfall 0.0  
Snow Depth 0.00 in    
Sea Level Pressure  
Sea Level Pressure 29.80 in    
Wind  
Wind Speed 14 mph (NW)    
Max Wind Speed 31 mph    
Max Gust Speed 39 mph    
Visibility 10 miles    
Events      
T = Trace of Precipitation, MM = Missing Value Source: NWS Daily Summary

Daily Weather History Graph

Daily Weather History Graph

Search for Another Location

Airport or City:

Astronomy

Oct. 20, 2019 Rise Set
Actual Time 7:16 AM MDT 6:25 PM MDT
Civil Twilight 6:50 AM MDT 6:51 PM MDT
Nautical Twilight 6:21 AM MDT 7:20 PM MDT
Astronomical Twilight 5:51 AM MDT 7:49 PM MDT
Moon 11:46 PM MDT 1:37 PM MDT
Length of Visible Light 12h 00m
Length of Day
11h 08m
Waning Gibbous, 58% of the Moon is Illuminated
Oct 20
Waning Gibbous
Oct 21
Last Quarter
Oct 27
New
Nov 4
First Quarter
Nov 12
Full

Hourly Weather History & Observations

Time (MDT) Temp. Windchill Dew Point Humidity Pressure Visibility Wind Dir Wind Speed Gust Speed Precip Events Conditions
12:52 AM 51.1 °F - 25.0 °F 36% 29.74 in 10.0 mi SE 9.2 mph - N/A   Scattered Clouds
1:52 AM 52.0 °F - 27.0 °F 38% 29.73 in 10.0 mi SE 10.4 mph - N/A   Mostly Cloudy
2:52 AM 52.0 °F - 25.0 °F 35% 29.72 in 10.0 mi SSE 10.4 mph - N/A   Mostly Cloudy
3:52 AM 53.1 °F - 21.9 °F 30% 29.71 in 10.0 mi South 8.1 mph - N/A   Mostly Cloudy
4:52 AM 54.0 °F - 21.0 °F 28% 29.69 in 10.0 mi South 9.2 mph - N/A   Mostly Cloudy
5:52 AM 53.1 °F - 21.0 °F 29% 29.70 in 10.0 mi South 5.8 mph - N/A   Mostly Cloudy
6:52 AM 52.0 °F - 21.0 °F 30% 29.70 in 10.0 mi South 10.4 mph - N/A   Scattered Clouds
7:52 AM 51.1 °F - 21.0 °F 31% 29.72 in 10.0 mi South 12.7 mph - N/A   Scattered Clouds
8:52 AM 53.1 °F - 16.0 °F 23% 29.76 in 10.0 mi SSW 11.5 mph - N/A   Mostly Cloudy
9:52 AM 55.0 °F - 14.0 °F 20% 29.79 in 10.0 mi SSW 9.2 mph - N/A   Mostly Cloudy
10:52 AM 57.0 °F - 21.0 °F 25% 29.79 in 10.0 mi NNE 13.8 mph - N/A   Partly Cloudy
11:52 AM 57.9 °F - 23.0 °F 26% 29.79 in 10.0 mi NNW 15.0 mph 23.0 mph N/A   Partly Cloudy
12:48 PM 60.8 °F - 23.0 °F 23% 29.92 in 10.0 mi NNW 13.8 mph 27.6 mph N/A   Partly Cloudy
12:52 PM 61.0 °F - 23.0 °F 23% 29.78 in 10.0 mi NNW 18.4 mph 27.6 mph N/A   Partly Cloudy
1:52 PM 60.1 °F - 19.9 °F 21% 29.77 in 10.0 mi NNW 26.5 mph 33.4 mph N/A   Partly Cloudy
2:52 PM 59.0 °F - 16.0 °F 19% 29.77 in 10.0 mi NNW 20.7 mph 34.5 mph N/A   Partly Cloudy
3:52 PM 60.1 °F - 16.0 °F 18% 29.78 in 10.0 mi NW 23.0 mph 35.7 mph N/A   Partly Cloudy
4:52 PM 57.0 °F - 12.0 °F 17% 29.80 in 10.0 mi NNW 26.5 mph 33.4 mph N/A   Partly Cloudy
5:52 PM 55.0 °F - 6.1 °F 14% 29.83 in 10.0 mi NNW 21.9 mph 34.5 mph N/A   Clear
6:52 PM 52.0 °F - -2.9 °F 10% 29.87 in 10.0 mi NNW 17.3 mph 26.5 mph N/A   Clear
7:52 PM 50.0 °F - -4.0 °F 11% 29.90 in 10.0 mi North 17.3 mph 23.0 mph N/A   Clear
8:52 PM 48.9 °F - -0.9 °F 13% 29.91 in 10.0 mi North 17.3 mph 27.6 mph N/A   Clear
9:52 PM 48.0 °F - -2.0 °F 13% 29.94 in 10.0 mi North 17.3 mph 24.2 mph N/A   Clear
10:52 PM 46.0 °F 41.4 °F -0.0 °F 15% 29.96 in 10.0 mi NW 9.2 mph - N/A   Clear
11:52 PM 42.1 °F 38.4 °F 3.0 °F 20% 29.97 in 10.0 mi SE 5.8 mph - N/A   Clear